Location: Granarolo
(44.4333°N, 8.9333°E)
Time: 01:51:56
(UTC+00:00)

Daily predictions for brighter satellites

Satellite Brightness Start Highest point End
(mag) Time Altitude Azimuth Time Altitude Azimuth Time Altitude Azimuth
Cosmos 1464 Rocket 3.8 00:08:47 78° WSW 00:09:05 81° W 00:15:22 10° N
Cosmos 2219 Rocket 2.2 00:06:03 10° NNW 00:11:13 71° WNW 00:11:13 71° WNW
Lacrosse 4 Rocket 2.7 00:13:01 37° NNW 00:13:01 37° NNW 00:16:08 10° NNE
Cosmos 1354 Rocket 4.1 00:16:38 75° NNW 00:16:38 75° NNW 00:21:37 10° NNE
Cosmos 968 Rocket 4.2 00:19:13 44° WNW 00:19:13 44° WNW 00:23:58 10° N
Cosmos 2322 Rocket 4.5 00:16:43 10° WNW 00:17:43 12° W 00:17:43 12° W
SL-4 R/B 4.2 00:22:19 19° NE 00:22:19 19° NE 00:23:43 10° ENE
SL-16 R/B 4.4 00:18:35 10° N 00:22:55 22° NE 00:27:13 10° E
COSMOS 2428 2.9 00:24:11 10° NNW 00:29:12 58° WNW 00:29:12 58° WNW
SL-16 R/B 3.1 00:28:36 35° ESE 00:30:58 52° ENE 00:37:02 10° N
BREEZE-M TANK 4.2 00:36:08 24° E 00:36:08 24° E 00:38:01 10° E
Nadezhda 4 Rocket 3.8 00:28:32 10° NNW 00:34:50 75° W 00:35:18 71° SW
Cosmos 2360 Rocket 4.1 00:31:18 10° WNW 00:33:24 16° WNW 00:33:24 16° WNW
Cosmos 2034 Rocket 3.9 00:35:41 67° WSW 00:36:14 71° W 00:42:32 10° N
CZ-2D R/B 2.8 00:32:18 10° NNE 00:37:33 43° E 00:38:05 42° ESE
Okean 2 Rocket 3.6 00:41:46 57° NNW 00:41:46 57° NNW 00:45:26 10° N
GEOS 3 Rocket 3.6 00:36:58 10° NE 00:42:24 79° NW 00:42:46 74° W
ADEOS II 3.9 00:41:56 10° NE 00:45:52 21° E 00:47:27 18° ESE
Cosmos 2297 Rocket 2.5 00:45:36 53° ESE 00:45:55 54° ESE 00:51:25 10° NE
Cosmos 2219 3.2 00:45:50 62° SE 00:46:05 63° ESE 00:51:38 10° NNE
Cosmos 1092 Rocket 3.9 00:40:42 10° N 00:46:59 86° E 00:48:01 64° SSE
Cosmos 1980 3.7 00:43:15 10° NNW 00:48:57 80° ENE 00:49:52 63° SE
Cosmos 1777 Rocket 3.9 00:49:00 77° ESE 00:49:02 77° ESE 00:54:21 10° NNE
Cosmos 2333 Rocket 3.3 00:44:13 10° NW 00:48:11 32° W 00:48:11 32° W
Helios 1B rocket 3.8 00:45:58 10° N 00:48:49 31° NW 00:48:49 31° NW
UNK 4.0 00:52:22 61° E 00:52:36 63° ENE 00:57:15 10° N
Cosmos 44 Rocket 3.9 00:51:25 10° NW 00:55:08 47° WNW 00:55:08 47° WNW
Cosmos 1300 Rocket 4.2 00:57:53 46° NW 00:57:53 46° NW 01:01:18 10° N
Cosmos 2237 Rocket 2.1 00:53:18 10° NNW 00:59:00 89° ENE 00:59:51 66° SSE
DELTA 2 DEB (DPAF) 4.3 01:00:27 68° NNW 01:00:27 68° NNW 01:04:22 10° NNW
Okean 1 Rocket 3.5 01:01:02 54° E 01:01:02 54° E 01:05:05 10° NNE
CZ-4C R/B 4.3 01:04:18 39° N 01:04:18 39° N 01:06:41 10° N
Cosmos 1626 4.1 01:00:42 10° NNE 01:03:43 23° ENE 01:04:26 21° E
CZ-4B R/B 4.3 00:59:49 10° NNE 01:04:15 37° E 01:04:55 35° ESE
Cosmos 2151 Rocket 4.1 01:12:29 47° NW 01:12:29 47° NW 01:16:17 10° N
ATLAS 3B CENTAUR R/B 4.4 01:13:44 31° S 01:13:44 31° S 01:19:48 10° SE
Timation 2 Rocket 4.2 01:14:34 46° WSW 01:16:01 57° WNW 01:21:59 10° NNE
In-Cosmos 22 4.3 01:13:37 10° NNW 01:19:03 52° W 01:19:15 52° WSW
Meteor 1-15 Rocket 4.1 01:22:53 59° SSW 01:23:57 78° W 01:29:36 10° N
Cosmos 1805 3.4 01:24:26 69° NNE 01:24:26 69° NNE 01:27:55 10° N
SJ 16-02 1.9 01:25:10 45° ESE 01:25:38 47° ESE 01:29:53 10° NNE
SL-14 R/B 4.4 01:23:45 10° N 01:27:29 40° ENE 01:28:24 34° ESE
DNEPR-1 R/B 4.0 01:22:21 10° NNW 01:28:11 77° NE 01:31:05 25° SE
ERBS 3.6 01:25:04 10° NW 01:28:12 39° NE 01:31:19 10° ESE
Cosmos 2227 Rocket 2.2 01:33:34 53° SW 01:34:54 75° WNW 01:40:36 10° NNE
Cosmos 1538 Rocket 4.1 01:30:52 10° NNW 01:35:50 50° WSW 01:35:50 50° WSW
Cosmos 1455 Rocket 4.2 01:34:24 29° SE 01:35:51 38° E 01:39:58 10° NNE
Resurs 1-4 Rocket 2.3 01:33:11 10° N 01:38:21 56° WNW 01:39:24 48° WSW
Cosmos 2180 Rocket 4.5 01:36:43 39° S 01:39:11 79° E 01:45:20 10° N
Cosmos 1674 3.7 01:37:15 10° NNW 01:39:47 35° NW 01:39:47 35° NW
Cosmos 1733 3.1 01:42:53 81° NW 01:42:53 81° NW 01:46:38 10° N
Cosmos 1892 Rocket 3.9 01:39:58 10° N 01:44:26 63° E 01:46:07 35° SSE
Cosmos 2279 Rocket 3.9 01:44:46 43° SSW 01:46:53 72° W 01:53:07 10° N
Cosmos 1461 3.6 01:47:03 41° SSE 01:47:48 45° ESE 01:52:07 10° NE
USA 215 3.2 01:41:59 10° NE 01:48:34 84° SE 01:51:29 37° SW
COBE Rocket 3.6 01:47:33 50° S 01:48:45 80° WSW 01:53:25 10° NNW
Cosmos 2026 Rocket 4.4 01:44:13 10° NNW 01:49:53 42° W 01:51:09 37° WSW
SL-24 R/B 4.3 01:53:41 47° SSW 01:55:00 73° W 01:59:58 10° N
Cosmos 2082 3.6 01:53:29 43° SSW 01:55:27 88° WNW 02:01:07 10° NNE
Cosmos 1340 Rocket 3.9 01:54:19 28° SE 01:55:49 40° E 01:59:34 10° NNE
SL-4 R/B 2.0 01:58:02 14° NW 02:00:51 59° NNE 02:04:12 10° ESE
Cosmos 2112 Rocket 4.0 01:56:12 10° NNW 02:01:28 79° ENE 02:06:36 10° SSE
Cosmos 1953 4.4 01:59:20 11° SE 02:02:20 24° E 02:05:35 10° NE
Cosmos 1726 4.0 02:04:07 15° SE 02:06:24 27° E 02:09:32 10° NNE
Meteor 1-24 Rocket 3.5 02:00:58 10° NNW 02:06:25 68° W 02:08:55 32° S
CBERS-1 4.0 02:02:08 10° N 02:07:14 68° WNW 02:09:09 38° SW
SL-16 R/B 2.1 02:01:56 10° NNW 02:07:37 72° WSW 02:12:33 14° SSE
Cosmos 1937 Rocket 4.0 02:06:56 26° S 02:09:48 57° ESE 02:15:02 10° NNE
Meteor 2-5 Rocket 4.0 02:04:40 10° NNW 02:10:04 48° W 02:11:59 34° SW
H-2A R/B 4.0 02:10:00 10° SE 02:13:32 28° ENE 02:17:03 10° N
Cosmos 1898 Rocket 3.5 02:11:41 33° SSW 02:14:08 85° ESE 02:19:23 10° NNE
ARIANE 5 R/B 2.8 02:09:32 10° NNE 02:14:45 69° ESE 02:18:02 23° S
SL-16 R/B 3.4 02:13:42 27° WSW 02:14:49 28° W 02:20:09 10° NW
CZ-2D R/B 3.3 02:12:43 10° N 02:17:22 29° WNW 02:19:24 23° W
IDEFIX/ARIANE 42P 3.4 02:12:36 10° NNE 02:17:37 47° E 02:21:55 14° S
Cosmos 1680 Rocket 3.4 02:14:03 10° NNW 02:19:14 63° WSW 02:22:58 19° S
NOSS 3-1 (C) 3.3 02:17:24 30° SSW 02:20:11 73° ESE 02:26:25 10° NE
USA 267 3.5 02:13:51 10° ESE 02:20:22 74° NE 02:26:54 10° NW
Cosmos 1544 Rocket 3.6 02:20:01 29° S 02:22:16 85° E 02:26:46 10° N
Cosmos 990 Rocket 4.0 02:23:20 31° SW 02:25:50 72° WNW 02:31:02 10° NNE
ADEOS II 2.3 02:20:45 10° N 02:25:52 54° WNW 02:28:23 29° SW
Cosmos 1607 4.0 02:20:05 10° NW 02:26:26 60° WSW 02:32:44 10° SSE
Cosmos 2263 Rocket 3.1 02:23:53 14° S 02:28:16 43° ESE 02:33:30 10° NE
IRS-1D 4.1 02:24:57 10° N 02:29:39 41° WNW 02:31:54 27° WSW
Cosmos 2297 Rocket 3.5 02:27:24 18° W 02:30:16 27° NW 02:35:02 10° N
Okean 1-7 Rocket 3.8 02:28:39 10° NNW 02:32:56 51° W 02:35:04 27° SSW
ERS-1 4.4 02:28:51 10° NNE 02:33:50 80° WNW 02:36:58 23° SSW
Meteor 2-10 4.4 02:29:20 14° S 02:33:56 68° E 02:39:30 10° NNE
IRS-1C 4.2 02:30:14 10° N 02:35:30 62° WNW 02:38:42 24° SW
NOSS 2-3 (D) 4.3 02:33:37 21° S 02:36:06 46° ESE 02:40:42 10° NE
Meteor 1-28 Rocket 3.3 02:36:21 27° SSW 02:38:09 54° W 02:41:54 10° NNW
Cosmos 1626 3.4 02:35:54 10° NW 02:38:53 23° W 02:38:56 23° W
Cosmos 2266 Rocket 4.2 02:33:44 10° NNW 02:39:56 55° W 02:45:02 15° SSW
Cosmos 1655 Rocket 4.5 02:34:54 10° NNW 02:40:41 41° W 02:44:28 20° SW
Cosmos 2237 Rocket 4.0 02:39:37 10° WNW 02:41:36 13° W 02:41:36 13° W
Cosmos 1602 Rocket 3.8 02:38:01 10° N 02:42:23 68° E 02:46:42 10° SSE
Cosmos 1470 3.2 02:41:43 29° SW 02:43:16 44° WNW 02:47:05 10° N
CZ-2C R/B 4.2 02:41:53 10° NE 02:45:44 26° E 02:49:34 10° SSE
Cosmos 1603 4.1 02:41:26 10° NNW 02:47:11 69° ENE 02:52:52 10° SE
SL-08 R/B 3.7 02:43:56 17° SSW 02:47:27 46° W 02:52:14 10° NNW
USA 229 DEB 3.6 02:48:34 20° SW 02:53:22 82° NW 03:00:17 10° NE
USA 229 3.6 02:48:40 20° SW 02:53:27 83° NW 03:00:20 10° NE
Cosmos 2098 Rocket 4.2 02:50:26 10° NNW 02:54:57 38° W 02:59:34 14° SSW
Nadezhda 2 Rocket 4.5 02:51:44 10° N 02:58:00 87° W 03:04:10 10° S
NOSS 2-3 (C) 3.6 03:01:08 18° SW 03:04:16 88° SE 03:09:15 10° NE
ERBS 3.4 03:01:42 10° WNW 03:04:18 22° SW 03:06:53 10° S
SJ 16-02 3.1 03:02:10 14° W 03:04:28 19° WNW 03:07:41 10° NNW
NOSS 3-1 (A) 3.3 03:00:07 17° SW 03:04:29 89° SE 03:10:50 10° NE
Meteor 2-14 Rocket 4.4 02:58:48 10° NNW 03:04:49 68° W 03:10:49 10° S
CSL-04 DEB 4.4 03:05:06 10° S 03:08:57 56° WSW 03:12:50 10° NNW
MSX 3.8 03:07:53 10° NNE 03:13:41 82° WNW 03:19:26 10° SSW
Cosmos 1943 3.2 03:08:47 10° NNW 03:14:26 89° WSW 03:20:03 10° SSE
PSLV R/B 4.1 03:10:19 10° NNE 03:14:40 59° E 03:18:58 10° S
Cosmos 1626 Rocket 4.0 03:11:12 10° NNW 03:15:14 39° W 03:19:14 10° SSW
Spot 4 Rocket 4.4 03:13:15 10° N 03:18:11 47° WNW 03:23:00 11° SW
Meteor 1-21 Rocket 4.3 03:13:42 10° NNW 03:19:07 55° W 03:24:29 10° S
Cosmos 2227 Rocket 4.2 03:16:43 10° WNW 03:19:59 15° NW 03:23:15 10° N
PAYLOAD A 4.4 03:15:40 10° NNE 03:21:03 71° ESE 03:26:15 10° S
SeaSat 1 2.5 03:17:18 10° NNE 03:22:17 88° WNW 03:27:13 10° SSW
Landsat 5 3.5 03:19:56 10° S 03:23:43 52° W 03:27:38 10° NNW
CZ-2C R/B 3.2 03:22:38 10° N 03:26:22 44° WNW 03:30:00 10° SW
CZ-2D R/B 4.5 03:24:21 10° N 03:27:52 28° WNW 03:31:10 11° SW
Cosmos 2227 4.5 03:24:45 10° SW 03:30:20 57° WNW 03:36:03 10° NNE
Cosmos 1048 Rocket 4.2 03:25:58 10° NNW 03:31:07 78° ENE 03:36:18 10° SSE
USA 215 4.2 03:25:11 10° NE 03:31:13 41° NNW 03:37:16 10° W
FALCON 9 DEB 3.2 03:28:06 10° WNW 03:31:30 54° SW 03:34:53 10° SE
ATLAS CENTAUR R/B 2.8 03:28:21 10° S 03:32:09 33° ESE 03:35:47 10° NE
Cosmos 1356 Rocket 4.4 03:28:18 10° S 03:32:23 50° E 03:36:27 10° NNE
Cosmos 1758 Rocket 3.5 03:28:59 10° NNW 03:33:17 69° W 03:37:33 10° S
ATLAS 3B CENTAUR R/B 4.1 03:27:27 10° WSW 03:33:42 18° SSW 03:37:40 10° SSE
ERS-2 2.5 03:31:33 10° S 03:34:59 40° W 03:38:28 10° NNW
Cosmos 2228 3.1 03:32:04 10° S 03:36:25 88° E 03:40:50 10° N
Cosmos 1953 3.5 03:35:12 10° SW 03:38:37 26° WNW 03:42:04 10° NNW
SL-4 R/B 2.8 03:37:27 10° W 03:40:08 22° SW 03:42:50 10° S
Cosmos 1726 3.7 03:38:50 10° WSW 03:41:36 20° WNW 03:44:21 10° NNW
Cosmos 1908 3.6 03:39:52 10° SSW 03:43:38 47° WNW 03:47:27 10° N
Meteor 1-16 Rocket 4.5 03:39:40 10° SSW 03:44:49 48° WNW 03:50:09 10° N
CBERS 1 LM4 rocket 4.5 03:40:06 10° NNE 03:45:02 83° WNW 03:50:10 10° SSW
Cosmos 2285 Rocket 4.1 03:40:26 10° SSW 03:46:43 72° WNW 03:53:02 10° NNE
H-2A R/B 3.0 03:46:02 10° SSW 03:49:29 26° W 03:52:56 10° NW
Cosmos 2150 Rocket 4.1 03:46:29 10° SSW 03:51:34 60° WNW 03:56:44 10° NNE
